DW3195 Weather Reports


time (UTC)temp
F
wind
direction
speed
knots
gust
knots
rain 1hr
in
rain 24hr
in
rain mn
in
humidity
%
barometer
mb
20260902111505 59 0 0.0 0.0 0.00 0.00 0.00 95 923.1
20260902111005 59 0 0.0 0.0 0.00 0.00 0.00 95 923.1
20260902110008 59 0 0.0 0.0 0.00 0.00 0.00 95 923.0
20260902104505 60 0 0.0 0.0 0.00 0.00 0.00 95 923.0
20260902104005 60 0 0.0 0.0 0.00 0.00 0.00 95 922.9
20260902103506 60 0 0.0 0.0 0.00 0.00 0.00 95 922.9
20260902101506 60 0 0.0 0.0 0.00 0.00 0.00 95 922.7
20260902101005 60 0 0.0 0.0 0.00 0.00 0.00 95 922.7
20260902100505 60 0 0.0 0.0 0.00 0.00 0.00 95 922.7
20260902100005 60 0 0.0 0.0 0.00 0.00 0.00 95 922.8
20260902094505 60 0 0.0 0.0 0.00 0.00 0.00 95 922.8
20260902093505 60 0 0.0 0.0 0.00 0.00 0.00 95 922.8
20260902093005 60 0 0.0 0.0 0.00 0.00 0.00 95 922.8
20260902091005 61 0 0.0 0.0 0.00 0.00 0.00 95 922.8
20260902090005 61 0 0.0 0.0 0.00 0.00 0.00 95 922.9
20260902083004 61 0 0.0 0.0 0.00 0.00 0.00 95 922.9
20260902081504 61 0 0.0 0.0 0.00 0.00 0.00 95 922.9
20260902080005 61 0 0.0 0.0 0.00 0.00 0.00 95 922.9
20260902074505 61 0 0.0 0.0 0.00 0.00 0.00 95 922.9
20260902074004 62 0 0.0 0.0 0.00 0.00 0.00 95 923.0
20260902073005 62 0 0.0 0.0 0.00 0.00 0.00 95 923.0
20260902071005 62 0 0.0 0.0 0.00 0.00 0.00 95 923.1
20260902070505 62 0 0.0 0.0 0.00 0.00 0.00 95 923.1
20260902064504 62 0 0.0 0.0 0.00 0.00 0.00 95 923.1
20260902064004 62 0 0.0 0.0 0.00 0.00 0.00 95 923.1
20260902063505 62 0 0.0 0.0 0.00 0.00 0.00 95 923.1
20260902063004 62 0 0.0 0.0 0.00 0.00 0.00 95 923.1
20260902061504 62 0 0.0 0.0 0.00 0.00 0.00 95 923.1
20260902061005 62 0 0.0 0.0 0.00 0.00 0.00 95 923.1
20260902060004 63 0 0.0 0.0 0.00 0.00 0.00 95 923.1
20260902054505 63 0 0.0 0.0 0.00 0.00 0.00 95 923.2
20260902054005 63 0 0.0 0.0 0.00 0.00 0.00 95 923.2
20260902053504 63 0 0.0 0.0 0.00 0.00 0.00 95 923.2
20260902051504 64 0 0.0 0.0 0.00 0.00 0.00 95 923.2
20260902051004 64 0 0.0 0.0 0.00 0.00 0.00 95 923.2
20260902044506 64 0 0.0 0.0 0.00 0.00 0.00 95 923.1
20260902044004 64 0 0.0 0.0 0.00 0.00 0.00 95 923.1
20260902043504 64 0 0.0 0.0 0.00 0.00 0.00 95 923.2
20260902043004 64 0 0.0 0.0 0.00 0.00 0.00 95 923.2
20260902041505 65 0 0.0 0.0 0.00 0.00 0.00 95 923.2
20260902041004 65 0 0.0 0.0 0.00 0.00 0.00 95 923.3
20260902040004 65 0 0.0 0.0 0.00 0.00 0.00 95 923.3
20260902034505 65 0 0.0 0.0 0.00 0.00 0.00 95 923.3
20260902034004 65 0 0.0 0.0 0.00 0.00 0.00 95 923.4
20260902033504 66 0 0.0 0.0 0.00 0.00 0.00 95 923.4
20260902033004 66 0 0.0 0.0 0.00 0.00 0.00 95 923.4
20260902031504 66 0 0.0 0.0 0.00 0.00 0.00 95 923.5
20260902031004 66 0 0.0 0.0 0.00 0.00 0.00 95 923.5
20260902030504 66 0 0.0 0.0 0.00 0.00 0.00 95 923.6
20260902024004 66 0 0.0 0.0 0.00 0.00 0.00 95 923.6
20260902023506 66 0 0.0 0.0 0.00 0.00 0.00 95 923.6
20260902023006 66 0 0.0 0.0 0.00 0.00 0.00 95 923.5
20260902021505 67 0 0.0 0.0 0.00 0.00 0.00 95 923.6
20260902021005 67 0 0.0 0.0 0.00 0.00 0.00 94 923.6
20260902020005 67 0 0.0 0.0 0.00 0.00 0.00 94 923.6
20260902014506 67 0 0.0 0.0 0.00 0.00 0.00 94 923.5
20260902014005 67 0 0.0 0.0 0.00 0.00 0.00 94 923.5
20260902013505 67 0 0.0 0.0 0.00 0.00 0.00 93 923.4
20260902011505 68 0 0.0 0.0 0.00 0.00 0.00 93 923.2
20260902011006 68 0 0.0 0.0 0.00 0.00 0.00 93 923.2
20260902010505 69 0 0.0 0.0 0.00 0.00 0.00 92 923.1
20260902010005 69 0 0.0 0.0 0.00 0.00 0.00 92 923.1
20260902004505 70 0 0.0 0.0 0.00 0.00 0.00 92 922.9
20260902004005 70 0 0.0 0.0 0.00 0.00 0.00 91 922.9
20260902003505 70 0 0.0 0.0 0.00 0.00 0.00 91 922.8
20260902003006 71 0 0.0 0.0 0.00 0.00 0.00 91 922.8
20260902001505 72 0 0.0 0.0 0.00 0.00 0.00 90 922.9
20260902001006 72 0 0.0 0.0 0.00 0.00 0.00 89 922.8
20260902000505 73 0 0.0 0.0 0.00 0.00 0.00 90 922.9
20260902000005 73 0 0.0 0.0 0.00 0.00 0.00 89 922.7
20260901234505 75 0 0.0 0.0 0.00 0.00 0.00 87 922.5
20260901233505 76 0 0.0 0.0 0.00 0.00 0.00 85 922.2
20260901233005 77 0 0.0 0.0 0.00 0.00 0.00 82 922.1
20260901231505 80 0 0.0 0.0 0.00 0.00 0.00 79 922.4
20260901231005 81 0 0.0 0.0 0.00 0.00 0.00 77 922.9
20260901230505 82 0 0.0 0.0 0.00 0.00 0.00 75 923.2
20260901230005 84 0 0.0 0.0 0.00 0.00 0.00 73 923.7
20260901224005 88 0 0.0 0.0 0.00 0.00 0.00 62 927.5
20260901223505 88 0 0.0 0.0 0.00 0.00 0.00 63 927.3
20260901223006 88 0 0.0 0.0 0.00 0.00 0.00 60 928.0
20260901221504 91 0 0.0 0.0 0.00 0.00 0.00 58 928.3
20260901221005 91 0 0.0 0.0 0.00 0.00 0.00 55 928.9
20260901220504 91 0 0.0 0.0 0.00 0.00 0.00 56 928.7
20260901214505 87 0 0.0 0.0 0.00 0.00 0.00 63 927.3
20260901214004 86 0 0.0 0.0 0.00 0.00 0.00 64 927.0
20260901213505 85 0 0.0 0.0 0.00 0.00 0.00 66 926.0
20260901213005 85 0 0.0 0.0 0.00 0.00 0.00 68 925.7
20260901211504 87 0 0.0 0.0 0.00 0.01 0.00 58 928.8
20260901211004 87 0 0.0 0.0 0.00 0.01 0.00 56 928.9
20260901210505 87 0 0.0 0.0 0.00 0.02 0.00 60 928.8
20260901204505 88 0 0.0 0.0 0.00 0.10 0.00 57 928.8
20260901204005 87 0 0.0 0.0 0.00 0.12 0.00 57 929.2
20260901203504 88 0 0.0 0.0 0.00 0.16 0.00 54 929.4
20260901203004 88 0 0.0 0.0 0.00 0.22 0.00 54 929.2
20260901201504 86 0 0.0 0.0 0.00 0.31 0.00 62 927.6
20260901200504 85 0 0.0 0.0 0.00 0.31 0.00 66 926.8
20260901194504 86 0 0.0 0.0 0.00 0.31 0.00 59 928.8
20260901194004 87 0 0.0 0.0 0.00 0.31 0.00 54 929.6
20260901193004 87 0 0.0 0.0 0.00 0.31 0.00 56 929.0
20260901191504 87 0 0.0 0.0 0.00 0.31 0.00 56 929.3
20260901191005 87 0 0.0 0.0 0.00 0.31 0.00 54 929.5
20260901190505 87 0 0.0 0.0 0.00 0.31 0.00 57 929.4
20260901190004 87 0 0.0 0.0 0.00 0.31 0.00 61 928.9
20260901184504 87 0 0.0 0.0 0.00 0.31 0.00 58 928.9
20260901184004 86 0 0.0 0.0 0.00 0.31 0.00 58 928.9
20260901183504 86 0 0.0 0.0 0.00 0.31 0.00 59 928.4
20260901183004 86 0 0.0 0.0 0.00 0.31 0.00 60 929.0
20260901181504 86 0 0.0 0.0 0.00 0.31 0.00 61 928.9
20260901181004 85 0 0.0 0.0 0.00 0.31 0.00 57 929.9
20260901180504 85 0 0.0 0.0 0.00 0.31 0.00 60 928.9
20260901180003 84 0 0.0 0.0 0.00 0.31 0.00 60 929.6
20260901174504 84 0 0.0 0.0 0.00 0.31 0.00 63 928.7
20260901174004 84 0 0.0 0.0 0.00 0.31 0.00 61 929.3
20260901173503 84 0 0.0 0.0 0.00 0.31 0.00 63 928.3
20260901173005 84 0 0.0 0.0 0.00 0.31 0.00 62 929.2
20260901171506 83 0 0.0 0.0 0.00 0.31 0.00 66 928.0
20260901171006 84 0 0.0 0.0 0.00 0.31 0.00 64 928.2
20260901170506 84 0 0.0 0.0 0.00 0.31 0.00 63 928.6
20260901164505 82 0 0.0 0.0 0.00 0.31 0.00 69 926.3
20260901164005 82 0 0.0 0.0 0.00 0.31 0.00 72 925.3
20260901161506 81 0 0.0 0.0 0.00 0.31 0.00 73 925.3
20260901160005 81 0 0.0 0.0 0.00 0.31 0.00 73 925.6
20260901154005 82 0 0.0 0.0 0.00 0.31 0.00 70 926.1
20260901153505 83 0 0.0 0.0 0.00 0.31 0.00 70 925.8
20260901151505 81 0 0.0 0.0 0.00 0.31 0.00 72 925.6
20260901151005 80 0 0.0 0.0 0.00 0.31 0.00 75 925.1
20260901150505 81 0 0.0 0.0 0.00 0.31 0.00 71 927.1
20260901150005 81 0 0.0 0.0 0.00 0.31 0.00 74 925.8
20260901144005 80 0 0.0 0.0 0.00 0.31 0.00 78 924.9
20260901143505 79 0 0.0 0.0 0.00 0.31 0.00 80 924.2
20260901143005 79 0 0.0 0.0 0.00 0.31 0.00 80 923.8
20260901141504 77 0 0.0 0.0 0.00 0.31 0.00 83 923.5
20260901141005 76 0 0.0 0.0 0.00 0.31 0.00 85 923.1
20260901140505 75 0 0.0 0.0 0.00 0.31 0.00 89 923.0
20260901140005 74 0 0.0 0.0 0.00 0.31 0.00 88 923.0
20260901134505 73 0 0.0 0.0 0.00 0.31 0.00 92 923.6
20260901133505 72 0 0.0 0.0 0.00 0.31 0.00 96 925.0
20260901133005 71 0 0.0 0.0 0.00 0.31 0.00 96 925.5
20260901131505 70 0 0.0 0.0 0.00 0.31 0.00 96 924.9
20260901131005 70 0 0.0 0.0 0.00 0.31 0.00 96 924.8
20260901130505 68 0 0.0 0.0 0.00 0.31 0.00 96 924.7
20260901124505 64 0 0.0 0.0 0.00 0.31 0.00 95 924.2
20260901124004 63 0 0.0 0.0 0.00 0.31 0.00 95 924.1
20260901123504 63 0 0.0 0.0 0.00 0.31 0.00 95 924.0
20260901123005 62 0 0.0 0.0 0.00 0.31 0.00 95 924.0
20260901121505 61 0 0.0 0.0 0.00 0.31 0.00 95 923.8
20260901120505 60 0 0.0 0.0 0.00 0.31 0.00 95 923.6
20260901120005 60 0 0.0 0.0 0.00 0.31 0.00 95 923.6
20260901114505 59 0 0.0 0.0 0.00 0.31 0.00 95 923.5
20260901114004 59 0 0.0 0.0 0.00 0.31 0.00 95 923.4
20260901113504 59 0 0.0 0.0 0.00 0.31 0.00 95 923.3
20260901113005 59 0 0.0 0.0 0.00 0.31 0.00 95 923.3